Regional Weather Roundup
Issued by NWS Kansas City/Pleasant Hill, MO

Current Version | Previous Version | Text Only | Print | Product List | Glossary On
Versions: 1 2 3 4 5 6 7 8 9 10 11 12 13 14 15 16 17 18 19 20 21 22 23 24 25 26 27 28 29 30 31 32 33 34 35 36 37 38 39 40 41 42 43 44 45 46 47 48 49 50
000
ASUS43 KEAX 301315
RWREAX

WEATHER ROUNDUP FOR EASTERN KANSAS AND NORTHWEST MISSOURI
NATIONAL WEATHER SERVICE KANSAS CITY/PLEASANT HILL MO
800 AM CDT FRI SEP 30 2022

KSZ040-057-103>105-MOZ028-029-037-043-301400-
...KANSAS CITY METROPOLITAN AREA...

CITY           SKY/WX    TMP DP  RH WIND       PRES   REMARKS
K.C. INTL      PTCLDY    50  42  74 SE8       30.21S
K.C. DOWNTOWN  CLEAR     53  43  68 E7        30.22S
LEES SUMMIT    CLEAR     50  43  77 SE8       30.23R
OLATHE - IXD   CLEAR     49  40  71 SE8       30.22S
OLATHE - OJC   CLEAR     49  41  74 SE7       30.21S
LAWRENCE       CLEAR     46  41  82 E5        30.21R

$$

MOZ001>008-011>017-020>025-030>033-038>040-044>046-053-054-301400-
...NORTHERN AND CENTRAL MISSOURI...

CITY           SKY/WX    TMP DP  RH WIND       PRES   REMARKS
ST. JOSEPH     CLEAR     42  41  96 CALM      30.21S
MOSBY          CLEAR     41  37  87 CALM      30.24R
HARRISONVILLE  CLEAR     48  43  81 CALM      30.26R
WHITEMAN AFB   CLEAR     40  39  95 CALM      30.19S
CLINTON        CLEAR     41  41 100 CALM      30.23S
SEDALIA        CLEAR     45  40  82 CALM      30.25R
MARSHALL       CLEAR     43  41  93 E3        30.26S
CHILLICOTHE      N/A     45  41  86 CALM      30.27R
MOBERLY        CLEAR    N/A N/A N/A CALM      30.28R
KIRKSVILLE     CLEAR     42  40  92 CALM      30.28R

$$

MOZ041-047>049-056>058-063>065-088>090-097-301400-
...EASTERN AND SOUTHERN MISSOURI...

CITY           SKY/WX    TMP DP  RH WIND       PRES   REMARKS
ST. LOUIS INTL SUNNY     51  45  79 NE3       30.28R
SPIRIT OF STL  FOG       41  41 100 CALM      30.27R VSB 1/4
COLUMBIA       CLEAR     49  42  77 E3        30.26R
JEFFERSON CITY SUNNY     42  40  92 E3        30.26S
MEXICO         SUNNY     43  43 100 E3        30.27S
HANNIBAL       SUNNY    N/A N/A N/A E5        30.28S
ROLLA          SUNNY     49  42  77 E6        30.25S
LEBANON        CLEAR     45  41  87 CALM      30.25R
OSAGE BEACH    CLEAR     43  41  93 CALM        N/A
SPRINGFIELD    CLEAR     46  40  79 CALM      30.22R
BRANSON        CLEAR     43  43 100 CALM      30.23R
JOPLIN         CLEAR     46  41  82 CALM      30.22R
WEST PLAINS    SUNNY     48  43  82 NE3       30.23S
SIKESTON       SUNNY     50  48  93 N5        30.21S

$$

IAZ060-094-KSZ022-034>040-054-083-096-NEZ052-066-093-301400-
...KANSAS...SOUTHEAST NEBRASKA AND IOWA...

CITY           SKY/WX    TMP DP  RH WIND       PRES   REMARKS
TOPEKA         CLEAR     51  43  74 SE7       30.18S
MANHATTAN      MOCLDY    53  43  68 CALM      30.14
EMPORIA        CLEAR     51  40  65 SE10      30.17S
CHANUTE        CLEAR     51  42  71 SE9       30.20S
SALINA         MOCLDY    59  42  53 SE10      30.11
WICHITA        LGT RAIN  58  44  60 S12       30.12S
OMAHA          MOCLDY    54  41  61 SE10      30.17S
LINCOLN        PTCLDY    56  42  59 S14       30.12F
FALLS CITY     PTCLDY    49  43  80 SE3       30.18S
LAMONI         CLEAR     47  41  80 SE6       30.24S
DES MOINES     PTCLDY    49  41  74 SE9       30.25S

$$




USA.gov is the U.S. government's official web portal to all federal, state and local government web resources and services.